User: anonymous   Login
Location: Debolt
(55.2626°N, 118.0981°W)
Time: 13:20:20
(UTC+00:00)
Language:

TIGRISAT - Orbit

View from above orbital plane
View from above orbital plane
View from above satellite
View from above satellite

Ground track
Ground track

The orbit data is extracted from the following two-line orbital elements,

1 40043U 14033AK  23341.41845781  .00002311  00000-0  32284-3 0  9992
2 40043  97.6741 147.9366 0056055 209.8767 149.9241 14.77500387508985
Epoch (UTC): 07 December 2023 10:02:34
Eccentricity: 0.0056055
inclination: 97.6741°
perigee height: 598 km
apogee height: 676 km
right ascension of ascending node: 147.9366°
argument of perigee: 209.8767°
revolutions per day: 14.77500387
mean anomaly at epoch: 149.9241°
orbit number at epoch: 50898

The dashed part of the orbit path shows where the satellite is in the earth's shadow,  

DLR